Lawton, OK

11:03 PM CDT on March 26, 2017 (GMT -0500)
Lawton-Fort Sill Regional

Weather History for KLAW - December, 2013

Change the Weather History Date:

Sunday, December 8, 2013

  Actual Average Record
Temperature  
Mean Temperature 26 °F -  
Max Temperature 32 °F 58 °F 78 °F (1966)
Min Temperature 19 °F 31 °F 6 °F (2005)
Degree Days  
Heating Degree Days 40    
Moisture  
Dew Point 18 °F    
Average Humidity 83    
Maximum Humidity 93    
Minimum Humidity 69    
Precipitation  
Precipitation 0.00 in - - ()
Sea Level Pressure  
Sea Level Pressure 30.13 in    
Wind  
Wind Speed 5 mph (SSW)    
Max Wind Speed 13 mph    
Max Gust Speed 17 mph    
Visibility 8 miles    
Events Snow    
Averages and records for this station are not official NWS values.
T = Trace of Precipitation, MM = Missing Value Source: NWS Daily Summary

Daily Weather History Graph

Daily Weather History Graph

Search for Another Location

Airport or City:

Trip Planner

Search our weather history database for the weather conditions in past years. The results will help you decide how hot, cold, wet, or windy it might be!

Date:

Astronomy

Dec. 08, 2013 Rise Set
Actual Time 7:28 AM CST 5:23 PM CST
Civil Twilight 7:00 AM CST 5:50 PM CST
Nautical Twilight 6:29 AM CST 6:22 PM CST
Astronomical Twilight 5:58 AM CST 6:52 PM CST
Moon 12:01 PM CST (12/8) No Moon Set
Length of Visible Light 10h 50m
Length of Day
9h 54m
Waxing Crescent, 40% of the Moon is Illuminated
Dec 8
Waxing Crescent
Dec 9
First Quarter
Dec 17
Full
Dec 25
Last Quarter
Jan 1
New

Hourly Weather History & Observations

Time (CST) Temp. Windchill Dew Point Humidity Pressure Visibility Wind Dir Wind Speed Gust Speed Precip Events Conditions
12:53 AM 21.0 °F - 12.9 °F 71% 30.29 in 10.0 mi Calm Calm - N/A   Overcast
1:44 AM 21.2 °F - 14.0 °F 74% 30.21 in - Calm Calm - N/A   Overcast
1:53 AM 21.0 °F - 14.0 °F 74% 30.26 in 10.0 mi Calm Calm - N/A   Overcast
2:53 AM 19.9 °F 14.9 °F 16.0 °F 85% 30.23 in 5.0 mi South 3.5 mph - N/A   Overcast
3:45 AM 19.4 °F 12.8 °F 17.6 °F 93% 30.16 in 4.0 mi SSE 4.6 mph - N/A   Overcast
3:53 AM 19.9 °F 13.4 °F 18.0 °F 92% 30.20 in 4.0 mi SSE 4.6 mph - N/A   Overcast
4:53 AM 19.9 °F 10.1 °F 17.1 °F 89% 30.18 in - South 8.1 mph - N/A   Overcast
5:07 AM 19.4 °F 10.4 °F 17.6 °F 93% 30.13 in 1.8 mi SSW 6.9 mph - N/A Snow Light Snow
5:27 AM 19.4 °F 11.5 °F 17.6 °F 93% 30.12 in 1.8 mi South 5.8 mph - N/A Snow Light Snow
5:29 AM 19.4 °F 11.5 °F 17.6 °F 93% 30.12 in 2.0 mi South 5.8 mph - N/A Snow Light Snow
5:42 AM 19.4 °F 9.5 °F 17.6 °F 93% 30.12 in 4.0 mi South 8.1 mph - N/A   Overcast
5:53 AM 19.9 °F 11.1 °F 17.1 °F 89% 30.17 in 6.0 mi SSW 6.9 mph - N/A   Overcast
6:10 AM 19.4 °F 11.5 °F 17.6 °F 93% 30.12 in 7.0 mi SSW 5.8 mph - N/A   Overcast
6:18 AM 19.4 °F 11.5 °F 17.6 °F 93% 30.12 in 5.0 mi SW 5.8 mph - N/A   Overcast
6:43 AM 19.4 °F 11.5 °F 17.6 °F 93% 30.12 in 4.0 mi SSW 5.8 mph - N/A   Overcast
6:53 AM 19.9 °F 11.1 °F 17.1 °F 89% 30.16 in 6.0 mi SSW 6.9 mph - N/A   Overcast
7:08 AM 19.4 °F 11.5 °F 17.6 °F 93% 30.12 in 4.0 mi SSW 5.8 mph - N/A   Overcast
7:53 AM 19.9 °F 11.1 °F 16.0 °F 85% 30.16 in 9.0 mi SSW 6.9 mph - N/A   Overcast
8:01 AM 19.4 °F 12.8 °F 17.6 °F 93% 30.11 in 8.0 mi SW 4.6 mph - N/A   Overcast
8:53 AM 21.0 °F 12.4 °F 16.0 °F 81% 30.15 in 9.0 mi SSW 6.9 mph - N/A   Overcast
9:26 AM 21.2 °F 10.1 °F 15.8 °F 80% 30.10 in 10.0 mi SSW 10.4 mph - N/A   Overcast
9:53 AM 21.9 °F 10.4 °F 17.1 °F 82% 30.15 in 10.0 mi South 11.5 mph - N/A   Overcast
10:49 AM 23.0 °F 11.7 °F 17.6 °F 80% 30.08 in - SSW 11.5 mph - N/A   Overcast
10:53 AM 24.1 °F 13.7 °F 18.0 °F 77% 30.12 in - SSW 10.4 mph - N/A   Overcast
11:03 AM 24.8 °F 14.0 °F 17.6 °F 74% 30.08 in - South 11.5 mph 17.3 mph N/A   Overcast
11:26 AM 24.8 °F 14.6 °F 17.6 °F 74% 30.07 in 10.0 mi SSW 10.4 mph - N/A   Overcast
11:53 AM 26.1 °F 16.2 °F 19.0 °F 75% 30.10 in 10.0 mi SSW 10.4 mph - N/A   Overcast
12:53 PM 27.0 °F 17.3 °F 19.9 °F 75% 30.06 in 10.0 mi SW 10.4 mph 17.3 mph N/A   Overcast
1:53 PM 28.9 °F 19.8 °F 21.0 °F 72% 30.03 in 10.0 mi SW 10.4 mph - N/A   Overcast
2:53 PM 30.9 °F 22.2 °F 21.9 °F 69% 30.01 in 10.0 mi South 10.4 mph - N/A   Mostly Cloudy
3:04 PM 30.2 °F 20.2 °F 21.2 °F 69% 29.98 in 10.0 mi South 12.7 mph - N/A   Scattered Clouds
3:53 PM 32.0 °F 25.6 °F 23.0 °F 69% 30.03 in 10.0 mi SSW 6.9 mph - N/A   Clear
4:53 PM 32.0 °F 28.7 °F 24.1 °F 73% 30.03 in 10.0 mi SSW 3.5 mph - N/A   Clear
5:53 PM 28.9 °F 22.8 °F 23.0 °F 78% 30.03 in 10.0 mi SSE 5.8 mph - N/A   Clear
6:53 PM 25.0 °F - 21.0 °F 85% 30.08 in 10.0 mi Calm Calm - N/A   Clear
7:53 PM 25.0 °F 16.3 °F 21.0 °F 85% 30.11 in 10.0 mi NE 8.1 mph - N/A   Clear
8:53 PM 25.0 °F 16.3 °F 19.9 °F 81% 30.13 in 10.0 mi NE 8.1 mph - N/A   Clear
9:53 PM 25.0 °F 13.6 °F 19.9 °F 81% 30.18 in 10.0 mi NNE 12.7 mph - N/A   Clear
10:53 PM 24.1 °F 12.5 °F 19.9 °F 84% 30.20 in 10.0 mi NNE 12.7 mph - N/A   Clear
11:53 PM 21.9 °F 14.5 °F 18.0 °F 85% 30.20 in 9.0 mi NE 5.8 mph - N/A   Clear